Location: Unspecified
(0.0000°N, 0.0000°E)
Time: 19:29:48
(UTC+00:00)

COSMOS 2401 - Pass Details

Date: 05 March 2021
Orbit: 1467 x 1500 km, 82.5° (Epoch: 12 April)

Event Time Altitude Azimuth Distance (km) Brightness Sun altitude
Rises 19:40:39 0° 191° (S) 4,579 10.2 -22.2°
Reaches altitude 10° 19:43:33 10° 193° (SSW) 3,599 9.7 -22.9°
Maximum altitude 19:52:03 65° 273° (W) 1,600 7.7 -25.0°
Drops below altitude 10° 20:00:36 10° 353° (N) 3,606 9.4 -27.2°
Sets 20:03:31 0° 357° (N) 4,588 10.0 -27.9°
